period_start,C,m1,H,J0,J1,J2,J3,J4,J5,JA,JB,JC,JD,JJ,JK,JN,#
2016-07-21 00:00:09,-0.00,0.06,0.00,25.25,29.03,31.66,14.36,47.58,1016.26,2031.95,3428.02,3072.11,3486.04,600.11,591.44,16.78,0000 0000 0000 0000 000000
2016-07-21 00:05:10,0.00,0.06,0.00,25.25,29.02,31.66,14.35,47.40,1016.18,2031.96,3428.01,3072.11,3486.05,599.95,591.35,16.83,0000 0000 0000 0000 000000
2016-07-21 00:10:11,0.00,0.06,0.00,25.25,29.03,31.65,14.32,47.46,1016.18,2031.95,3428.00,3072.07,3486.02,599.75,591.11,16.88,0000 0000 0000 0000 000000
2016-07-21 00:15:12,0.00,0.06,0.00,25.26,29.03,31.65,14.39,47.45,1016.26,2031.96,3428.02,3072.07,3486.04,600.25,591.56,16.93,0000 0000 0000 0000 000000
2016-07-21 00:20:13,0.00,0.06,0.00,25.27,29.03,31.67,14.29,47.38,1016.28,2031.96,3428.02,3072.05,3486.01,599.92,591.25,16.98,0000 0000 0000 0000 000000
2016-07-21 00:25:15,0.00,0.06,0.00,25.27,29.04,31.69,14.32,47.44,1016.15,2031.97,3428.00,3072.02,3486.00,599.75,590.93,17.03,0000 0000 0000 0000 000000
2016-07-21 00:30:16,-0.00,0.06,0.00,25.27,29.05,31.67,14.32,47.42,1016.19,2031.94,3428.00,3072.01,3486.00,599.82,591.18,17.08,0000 0000 0000 0000 000000
2016-07-21 00:35:17,-0.00,0.06,0.00,25.26,29.05,31.68,14.40,47.54,1016.41,2031.91,3428.00,3072.00,3486.00,600.07,591.53,17.13,0000 0000 0000 0000 000000
2016-07-21 00:40:18,0.00,0.06,0.00,25.27,29.05,31.68,14.37,47.57,1016.52,2031.94,3428.00,3072.01,3486.00,600.15,591.61,17.18,0000 0000 0000 0000 000000
2016-07-21 00:45:20,0.00,0.06,0.00,25.27,29.05,31.68,14.40,47.45,1016.53,2031.98,3427.99,3072.00,3485.98,600.31,591.78,17.23,0000 0000 0000 0000 000000
2016-07-21 00:50:21,0.00,0.06,0.00,25.27,29.06,31.65,14.40,47.52,1016.40,2031.97,3427.81,3071.99,3485.87,600.50,591.81,17.28,0000 0000 0000 0000 000000
2016-07-21 00:55:22,0.02,0.06,0.00,25.27,29.07,31.66,14.35,47.48,1016.27,2031.94,3427.12,3071.83,3485.22,599.96,591.31,17.33,0000 0000 0000 0000 000000
2016-07-21 01:00:23,0.01,0.06,0.00,25.27,29.07,31.66,14.38,47.36,1016.28,2031.93,3427.00,3071.24,3485.02,599.86,591.11,17.38,0000 0000 0000 0000 000000
2016-07-21 01:05:24,0.01,0.06,0.00,25.27,29.07,31.67,14.32,47.48,1016.34,2031.90,3426.64,3071.01,3484.98,599.94,591.25,17.43,0000 0000 0000 0000 000000
2016-07-21 01:10:25,0.01,0.06,0.00,25.27,29.07,31.68,14.34,47.42,1016.22,2031.89,3426.03,3071.00,3484.60,600.35,591.52,17.48,0000 0000 0000 0000 000000
2016-07-21 01:15:27,0.01,0.06,0.00,25.27,29.07,31.67,14.35,47.38,1016.16,2031.88,3425.93,3070.95,3484.04,599.84,591.03,17.53,0000 0000 0000 0000 000000
2016-07-21 01:20:28,0.02,0.06,0.00,25.30,29.07,31.67,14.35,47.40,1016.20,2031.79,3425.21,3070.35,3484.00,599.77,590.98,17.58,0000 0000 0000 0000 000000
2016-07-21 01:25:29,-0.01,0.06,0.00,25.30,29.07,31.67,14.35,47.34,1016.16,2031.70,3425.00,3070.02,3483.95,600.11,591.30,17.63,0000 0000 0000 0000 000000
2016-07-21 01:30:30,-0.01,0.06,0.00,25.30,29.07,31.67,14.44,47.19,1016.18,2031.44,3424.99,3070.00,3483.52,600.21,591.44,17.68,0000 0000 0000 0000 000000
2016-07-21 01:35:32,0.01,0.06,0.00,25.31,29.07,31.67,14.39,47.47,1016.18,2031.55,3424.96,3070.00,3483.22,600.30,591.53,17.73,0000 0000 0000 0000 000000
2016-07-21 01:40:33,0.02,0.06,0.00,25.30,29.07,31.68,14.35,47.33,1016.15,2031.56,3424.89,3069.99,3483.02,599.79,590.95,17.78,0000 0000 0000 0000 000000
2016-07-21 01:45:34,0.00,0.06,0.00,25.31,29.07,31.67,14.39,47.38,1016.14,2031.62,3424.78,3069.99,3483.01,600.24,591.42,17.83,0000 0000 0000 0000 000000
2016-07-21 01:50:36,0.00,0.06,0.00,25.31,29.07,31.66,14.31,47.49,1016.14,2031.68,3424.37,3069.96,3483.00,600.02,591.08,17.88,0000 0000 0000 0000 000000
2016-07-21 01:55:37,0.02,0.07,0.00,25.32,29.06,31.67,14.31,47.42,1016.15,2031.76,3424.08,3069.87,3483.00,599.64,590.66,17.93,0000 0000 0000 0000 000000
2016-07-21 02:00:38,0.01,0.07,0.00,25.35,29.05,31.67,14.37,47.52,1016.18,2031.87,3424.01,3069.62,3482.99,600.10,591.13,17.98,0000 0000 0000 0000 000000
2016-07-21 02:05:39,0.02,0.07,0.00,25.35,29.05,31.65,14.34,47.34,1016.20,2031.89,3424.00,3069.14,3482.95,600.09,591.21,18.03,0000 0000 0000 0000 000000
2016-07-21 02:10:41,0.01,0.07,0.00,25.35,29.05,31.66,14.37,47.38,1016.15,2031.91,3424.00,3069.01,3482.54,600.00,591.12,18.09,0000 0000 0000 0000 000000
2016-07-21 02:15:42,0.00,0.07,0.00,25.36,29.05,31.66,14.37,47.42,1016.14,2031.80,3423.69,3069.00,3482.03,599.68,590.67,18.14,0000 0000 0000 0000 000000
2016-07-21 02:20:43,-0.00,0.07,0.00,25.36,29.05,31.68,14.33,47.29,1016.14,2031.66,3423.10,3068.88,3481.99,599.87,590.91,18.19,0000 0000 0000 0000 000000
2016-07-21 02:25:44,0.02,0.07,0.00,25.37,29.05,31.67,14.31,47.27,1016.15,2031.66,3423.00,3068.30,3481.83,599.64,590.74,18.24,0000 0000 0000 0000 000000
2016-07-21 02:30:45,0.02,0.07,0.00,25.37,29.05,31.67,14.34,47.21,1016.14,2031.80,3422.90,3068.04,3481.38,600.16,591.15,18.29,0000 0000 0000 0000 000000
2016-07-21 02:35:46,0.00,0.07,0.00,25.38,29.06,31.67,14.36,47.33,1016.14,2031.77,3422.29,3068.01,3481.06,599.99,590.90,18.34,0000 0000 0000 0000 000000
2016-07-21 02:40:47,0.02,0.07,0.00,25.39,29.07,31.69,14.32,47.33,1016.16,2031.83,3422.05,3068.00,3481.00,599.84,590.85,18.39,0000 0000 0000 0000 000000
2016-07-21 02:45:48,-0.00,0.07,0.00,25.40,29.07,31.68,14.38,47.43,1016.17,2031.82,3422.00,3067.98,3481.00,600.22,591.21,18.44,0000 0000 0000 0000 000000
2016-07-21 02:50:49,-0.01,0.07,0.00,25.40,29.07,31.68,14.36,47.35,1016.22,2031.77,3422.00,3067.94,3480.97,600.13,591.15,18.49,0000 0000 0000 0000 000000
2016-07-21 02:55:51,0.02,0.07,0.00,25.40,29.07,31.69,14.39,47.31,1016.16,2031.65,3421.86,3067.49,3480.54,600.41,591.41,18.54,0000 0000 0000 0000 000000
2016-07-21 03:00:52,0.01,0.07,0.00,25.41,29.07,31.67,14.31,47.33,1016.14,2031.67,3421.31,3067.05,3480.05,599.52,590.45,18.59,0000 0000 0000 0000 000000
2016-07-21 03:05:53,0.01,0.07,0.00,25.42,29.07,31.66,14.34,47.33,1016.13,2031.64,3421.03,3067.00,3480.00,599.93,590.86,18.64,0000 0000 0000 0000 000000
2016-07-21 03:10:55,0.01,0.07,0.00,25.42,29.07,31.67,14.36,47.33,1016.13,2031.69,3420.98,3066.97,3479.97,600.14,591.03,18.69,0000 0000 0000 0000 000000
2016-07-21 03:15:56,0.03,0.07,0.00,25.43,29.07,31.69,14.34,47.19,1016.13,2031.78,3420.71,3066.73,3479.63,599.86,590.70,18.74,0000 0000 0000 0000 000000
2016-07-21 03:20:57,0.02,0.08,0.00,25.44,29.07,31.71,14.36,47.27,1016.13,2031.80,3420.08,3066.10,3479.06,599.90,590.84,18.79,0000 0000 0000 0000 000000
2016-07-21 03:25:59,-0.00,0.08,0.00,25.45,29.07,31.69,14.40,47.26,1016.13,2031.66,3420.00,3066.01,3479.00,600.31,591.25,18.84,0000 0000 0000 0000 000000
2016-07-21 03:31:00,0.00,0.08,0.00,25.45,29.09,31.71,14.39,47.43,1016.13,2031.70,3419.92,3066.00,3478.96,600.50,591.36,18.89,0000 0000 0000 0000 000000
2016-07-21 03:36:01,0.02,0.08,0.00,25.45,29.10,31.71,14.25,47.27,1016.13,2031.71,3419.26,3065.89,3478.54,599.46,590.42,18.94,0000 0000 0000 0000 000000
2016-07-21 03:41:02,0.00,0.08,0.00,25.47,29.10,31.71,14.35,47.38,1016.13,2031.52,3418.98,3065.21,3478.03,599.98,590.81,18.99,0000 0000 0000 0000 000000
2016-07-21 03:46:04,-0.01,0.08,0.00,25.47,29.10,31.70,14.33,47.34,1016.13,2031.29,3418.33,3065.00,3477.98,600.21,590.98,19.04,0000 0000 0000 0000 000000
2016-07-21 03:51:05,0.00,0.08,0.00,25.47,29.11,31.72,14.37,47.18,1016.13,2031.18,3418.01,3064.99,3477.68,599.99,590.83,19.09,0000 0000 0000 0000 000000
2016-07-21 03:56:06,0.01,0.08,0.00,25.49,29.12,31.73,14.32,47.23,1016.13,2031.17,3417.98,3064.74,3477.05,599.80,590.62,19.14,0000 0000 0000 0000 000000
2016-07-21 04:01:07,0.01,0.08,0.00,25.50,29.12,31.73,14.31,47.24,1016.13,2031.11,3417.63,3064.17,3477.00,600.39,591.14,19.19,0000 0000 0000 0000 000000
2016-07-21 04:06:08,0.01,0.08,0.00,25.52,29.12,31.74,14.39,47.36,1016.13,2031.12,3417.11,3064.02,3476.97,600.03,590.76,19.24,0000 0000 0000 0000 000000
2016-07-21 04:11:10,0.00,0.08,0.00,25.53,29.14,31.74,14.37,47.48,1016.13,2031.10,3417.00,3064.00,3476.75,600.16,590.83,19.29,0000 0000 0000 0000 000000
2016-07-21 04:16:11,0.01,0.08,0.00,25.55,29.15,31.74,14.33,47.35,1016.13,2031.06,3416.84,3063.97,3476.09,599.95,590.71,19.34,0000 0000 0000 0000 000000
2016-07-21 04:21:12,0.01,0.08,0.00,25.55,29.15,31.73,14.36,47.43,1016.13,2031.05,3416.22,3063.88,3476.00,600.39,591.04,19.39,0000 0000 0000 0000 000000
2016-07-21 04:26:13,0.01,0.08,0.00,25.56,29.15,31.75,14.35,47.46,1016.13,2031.04,3416.03,3063.51,3476.00,600.29,590.87,19.44,0000 0000 0000 0000 000000
2016-07-21 04:31:14,0.00,0.08,0.00,25.57,29.17,31.75,14.35,47.42,1016.13,2031.01,3416.00,3063.15,3475.98,599.94,590.47,19.49,0000 0000 0000 0000 000000
2016-07-21 04:36:15,0.00,0.08,0.00,25.57,29.17,31.77,14.29,47.38,1016.13,2031.00,3416.00,3063.04,3475.93,599.76,590.41,19.54,0000 0000 0000 0000 000000
2016-07-21 04:41:17,0.01,0.08,0.00,25.59,29.17,31.77,14.33,47.41,1016.13,2031.00,3415.95,3063.00,3475.54,599.88,590.51,19.59,0000 0000 0000 0000 000000
2016-07-21 04:46:18,0.01,0.08,0.00,25.60,29.18,31.78,14.33,47.18,1016.13,2031.00,3415.74,3063.00,3475.11,599.75,590.33,19.64,0000 0000 0000 0000 000000
2016-07-21 04:51:19,0.01,0.08,0.00,25.61,29.20,31.77,14.28,47.23,1016.10,2031.00,3415.19,3062.99,3475.02,599.56,590.15,19.69,0000 0000 0000 0000 000000
2016-07-21 04:56:20,0.00,0.08,0.00,25.62,29.20,31.78,14.29,47.27,1016.08,2031.00,3415.03,3062.96,3475.00,599.73,590.23,19.74,0000 0000 0000 0000 000000
2016-07-21 05:01:21,0.00,0.08,0.00,25.64,29.20,31.79,14.28,47.30,1016.10,2031.00,3415.04,3062.96,3475.00,599.92,590.42,19.79,0000 0000 0000 0000 000000
2016-07-21 05:06:23,0.00,0.08,0.00,25.65,29.22,31.81,14.30,47.39,1016.09,2031.00,3415.00,3062.79,3475.00,599.86,590.38,19.84,0000 0000 0000 0000 000000
2016-07-21 05:11:24,0.00,0.08,0.00,25.66,29.22,31.81,14.33,47.37,1016.12,2030.99,3415.00,3062.63,3474.99,600.17,590.63,19.89,0000 0000 0000 0000 000000
2016-07-21 05:16:26,0.00,0.08,0.00,25.67,29.22,31.83,14.32,47.55,1016.11,2030.99,3415.00,3062.37,3474.98,600.13,590.38,19.94,0000 0000 0000 0000 000000
2016-07-21 05:21:27,0.00,0.09,0.00,25.69,29.23,31.82,14.25,47.42,1016.00,2030.97,3414.99,3062.14,3474.92,599.74,590.14,19.99,0000 0000 0000 0000 000000
2016-07-21 05:26:28,0.01,0.09,0.00,25.70,29.24,31.83,14.32,47.30,1015.83,2030.98,3414.91,3062.05,3474.79,599.89,590.09,20.04,0000 0000 0000 0000 000000
2016-07-21 05:31:30,0.01,0.09,0.00,25.71,29.25,31.84,14.35,47.47,1015.71,2030.98,3414.56,3062.01,3474.38,600.54,590.55,20.09,0000 0000 0000 0000 000000
2016-07-21 05:36:31,0.01,0.09,0.00,25.72,29.25,31.87,14.23,47.35,1015.79,2030.97,3414.20,3062.01,3474.17,599.64,589.89,20.14,0000 0000 0000 0000 000000
2016-07-21 05:41:33,0.00,0.09,0.00,25.72,29.25,31.84,14.35,47.39,1015.72,2030.98,3414.04,3062.00,3474.07,599.76,589.79,20.19,0000 0000 0000 0000 000000
2016-07-21 05:46:34,-0.00,0.09,0.00,25.74,29.25,31.84,14.31,47.38,1015.83,2030.98,3414.00,3062.00,3474.02,600.02,590.10,20.24,0000 0000 0000 0000 000000
2016-07-21 05:51:35,0.00,0.09,0.00,25.75,29.25,31.89,14.33,47.38,1015.90,2030.97,3414.00,3061.97,3474.00,599.88,590.01,20.29,0000 0000 0000 0000 000000
2016-07-21 05:56:36,0.00,0.09,0.00,25.76,29.25,31.88,14.25,47.31,1016.08,2030.96,3413.92,3061.88,3473.98,600.07,590.32,20.34,0000 0000 0000 0000 000000
2016-07-21 06:01:38,0.01,0.09,0.00,25.77,29.27,31.87,14.29,47.36,1016.12,2030.95,3413.70,3061.64,3473.96,600.05,590.27,20.39,0000 0000 0000 0000 000000
2016-07-21 06:06:39,0.02,0.09,0.00,25.78,29.27,31.87,14.25,47.21,1016.13,2030.97,3413.21,3061.37,3473.79,599.79,590.00,20.44,0000 0000 0000 0000 000000
2016-07-21 06:11:40,0.01,0.09,0.00,25.80,29.27,31.90,14.30,47.27,1016.13,2030.97,3413.02,3061.05,3473.19,600.15,590.26,20.49,0000 0000 0000 0000 000000
2016-07-21 06:16:42,-0.00,0.09,0.00,25.80,29.27,31.92,14.30,47.27,1016.10,2030.92,3412.98,3061.00,3473.01,600.11,590.26,20.54,0000 0000 0000 0000 000000
2016-07-21 06:21:43,0.00,0.09,0.00,25.80,29.27,31.93,14.30,47.33,1016.12,2030.93,3412.78,3061.00,3473.00,599.79,589.94,20.59,0000 0000 0000 0000 000000
2016-07-21 06:26:44,0.01,0.09,0.00,25.80,29.27,31.92,14.29,47.29,1016.11,2030.94,3412.31,3060.99,3472.98,599.88,590.14,20.64,0000 0000 0000 0000 000000
2016-07-21 06:31:45,0.00,0.09,0.00,25.82,29.28,31.91,14.33,47.37,1016.08,2030.91,3412.09,3060.93,3472.94,599.94,590.04,20.69,0000 0000 0000 0000 000000
2016-07-21 06:36:46,0.02,0.09,0.00,25.82,29.29,31.92,14.30,47.50,1016.08,2030.89,3412.00,3060.63,3472.49,600.18,590.21,20.74,0000 0000 0000 0000 000000
2016-07-21 06:41:48,0.01,0.09,0.00,25.84,29.29,31.93,14.31,47.36,1015.94,2030.81,3411.96,3060.11,3472.08,600.19,590.09,20.79,0000 0000 0000 0000 000000
2016-07-21 06:46:49,0.01,0.09,0.00,25.85,29.30,31.91,14.33,47.55,1015.86,2030.71,3411.36,3060.01,3472.00,600.32,590.31,20.84,0000 0000 0000 0000 000000
2016-07-21 06:51:50,-0.01,0.09,0.00,25.85,29.30,31.91,14.39,47.63,1015.79,2030.58,3411.03,3060.00,3472.00,600.17,590.16,20.89,0000 0000 0000 0000 000000
2016-07-21 06:56:51,-0.01,0.09,0.00,25.85,29.30,31.94,14.32,47.62,1015.69,2030.67,3411.01,3060.00,3472.00,599.75,589.67,20.94,0000 0000 0000 0000 000000
2016-07-21 07:01:52,0.01,0.09,0.00,25.87,29.30,31.97,14.33,47.48,1015.71,2030.63,3411.00,3059.99,3471.94,600.05,589.84,20.99,0000 0000 0000 0000 000000
2016-07-21 07:06:53,0.02,0.09,0.00,25.88,29.31,31.94,14.30,47.47,1015.76,2030.72,3410.99,3059.98,3471.91,599.96,589.64,21.04,0000 0000 0000 0000 000000
2016-07-21 07:11:55,0.00,0.09,0.00,25.89,29.32,31.95,14.34,47.48,1015.86,2030.73,3410.96,3059.98,3471.81,600.24,590.06,21.09,0000 0000 0000 0000 000000
2016-07-21 07:16:56,-0.00,0.09,0.00,25.90,29.32,31.97,14.25,47.42,1015.81,2030.62,3410.75,3059.93,3471.46,599.94,589.67,21.15,0000 0000 0000 0000 000000
2016-07-21 07:21:57,0.01,0.09,0.00,25.91,29.32,31.98,14.33,47.50,1015.69,2030.54,3410.36,3059.82,3471.10,600.13,589.82,21.19,0000 0000 0000 0000 000000
2016-07-21 07:26:59,-0.00,0.09,0.00,25.92,29.32,32.01,14.33,47.48,1015.65,2030.43,3410.06,3059.54,3471.04,600.04,589.77,21.24,0000 0000 0000 0000 000000
2016-07-21 07:32:00,0.02,0.09,0.00,25.92,29.33,31.99,14.33,47.37,1015.64,2030.34,3410.01,3059.17,3471.00,600.13,589.77,21.29,0000 0000 0000 0000 000000
2016-07-21 07:37:01,-0.01,0.09,0.00,25.92,29.34,31.99,14.30,47.32,1015.65,2030.28,3410.00,3059.05,3471.00,599.85,589.51,21.35,0000 0000 0000 0000 000000
2016-07-21 07:42:03,-0.01,0.09,0.00,25.94,29.35,32.01,14.24,47.43,1015.64,2030.15,3409.99,3059.01,3470.98,599.92,589.58,21.39,0000 0000 0000 0000 000000
2016-07-21 07:47:04,-0.00,0.09,0.00,25.95,29.35,32.01,14.39,47.36,1015.64,2030.12,3409.97,3059.01,3470.97,600.44,590.08,21.45,0000 0000 0000 0000 000000
2016-07-21 07:52:05,0.03,0.09,0.00,25.97,29.35,32.05,14.28,47.24,1015.65,2030.48,3409.98,3059.02,3470.99,599.95,589.62,21.50,0000 0000 0000 0000 000000
2016-07-21 07:57:06,-0.01,0.09,0.00,25.97,29.35,32.06,14.32,47.24,1015.64,2030.38,3409.92,3059.00,3470.98,600.19,589.66,21.55,0000 0000 0000 0000 000000
2016-07-21 08:02:08,-0.01,0.09,0.00,25.97,29.37,32.02,14.31,47.24,1015.65,2030.34,3409.67,3059.00,3470.87,600.01,589.50,21.60,0000 0000 0000 0000 000000
2016-07-21 08:07:09,0.02,0.09,0.00,25.97,29.37,32.01,14.27,47.48,1015.66,2030.18,3409.07,3058.86,3470.35,599.87,589.36,21.65,0000 0000 0000 0000 000000
2016-07-21 08:12:10,0.14,0.10,0.00,25.97,29.37,32.02,14.35,47.52,1015.66,2030.11,3407.37,3056.67,3467.74,599.97,589.48,21.70,0000 0000 0000 0000 000000
2016-07-21 08:17:12,0.01,0.10,0.00,25.97,29.38,32.04,14.27,47.36,1015.65,2030.17,3406.79,3056.00,3467.00,599.70,589.44,21.75,0000 0000 0000 0000 000000
2016-07-21 08:22:13,0.00,0.10,0.00,25.99,29.39,32.06,14.34,47.60,1015.64,2030.13,3406.26,3055.98,3466.99,600.28,589.79,21.80,0000 0000 0000 0000 000000
2016-07-21 08:27:14,0.15,0.11,0.00,25.99,29.40,32.04,14.28,47.24,1015.64,2030.04,3404.67,3053.98,3464.74,599.93,589.46,21.85,0000 0000 0000 0000 000000
2016-07-21 08:32:15,0.12,0.12,0.00,25.99,29.40,32.04,14.26,47.32,1015.64,2030.01,3401.96,3051.10,3461.15,599.65,589.14,21.90,0000 0000 0000 0000 000000
2016-07-21 08:37:17,0.01,0.12,0.00,25.97,29.40,32.07,14.32,47.33,1015.64,2030.01,3401.27,3050.99,3461.00,599.82,589.44,21.95,0000 0000 0000 0000 000000
2016-07-21 08:42:18,0.00,0.12,0.00,25.97,29.40,32.07,14.31,47.45,1015.64,2030.01,3401.04,3050.98,3461.00,600.35,589.74,22.00,0000 0000 0000 0000 000000
2016-07-21 08:47:19,0.00,0.12,0.00,25.97,29.40,32.09,14.29,47.39,1015.64,2030.00,3401.02,3050.98,3461.00,599.92,589.61,22.05,0000 0000 0000 0000 000000
2016-07-21 08:52:21,0.00,0.12,0.00,25.99,29.40,32.07,14.29,47.42,1015.64,2030.01,3401.01,3050.96,3460.99,600.33,589.86,22.10,0000 0000 0000 0000 000000
2016-07-21 08:57:22,0.00,0.12,0.00,25.99,29.42,32.05,14.29,47.34,1015.63,2030.02,3401.01,3050.97,3460.99,599.83,589.38,22.15,0000 0000 0000 0000 000000
2016-07-21 09:02:24,0.00,0.12,0.00,26.00,29.42,32.10,14.30,47.31,1015.60,2030.02,3401.00,3050.82,3460.96,600.03,589.38,22.20,0000 0000 0000 0000 000000
2016-07-21 09:07:25,-0.00,0.12,0.00,25.99,29.42,32.10,14.31,47.36,1015.58,2030.01,3400.99,3050.85,3460.96,600.35,589.81,22.25,0000 0000 0000 0000 000000
2016-07-21 09:12:26,0.01,0.12,0.00,25.99,29.42,32.08,14.23,47.55,1015.62,2030.01,3400.98,3050.40,3460.75,599.86,589.35,22.30,0000 0000 0000 0000 000000
2016-07-21 09:17:27,0.01,0.12,0.00,25.98,29.42,32.09,14.31,47.55,1015.62,2030.00,3400.92,3050.13,3460.36,599.97,589.49,22.35,0000 0000 0000 0000 000000
2016-07-21 09:22:28,0.00,0.12,0.00,25.99,29.43,32.13,14.34,47.56,1015.61,2030.00,3400.78,3050.09,3460.26,600.10,589.59,22.40,0000 0000 0000 0000 000000
2016-07-21 09:27:29,-0.00,0.12,0.00,25.99,29.44,32.09,14.33,47.59,1015.59,2030.00,3400.66,3050.06,3460.10,599.97,589.36,22.45,0000 0000 0000 0000 000000
2016-07-21 09:32:31,0.01,0.12,0.00,26.00,29.45,32.09,14.30,47.57,1015.63,2030.00,3400.47,3050.05,3460.11,600.10,589.58,22.50,0000 0000 0000 0000 000000
2016-07-21 09:37:32,0.01,0.12,0.00,25.99,29.45,32.12,14.28,47.42,1015.64,2030.00,3400.37,3050.06,3460.11,599.95,589.47,22.55,0000 0000 0000 0000 000000
2016-07-21 09:42:33,0.00,0.12,0.00,25.99,29.45,32.10,14.27,47.40,1015.64,2030.00,3400.04,3050.01,3460.00,599.72,589.29,22.60,0000 0000 0000 0000 000000
2016-07-21 09:47:35,0.00,0.12,0.00,26.00,29.45,32.11,14.28,47.50,1015.64,2030.00,3400.00,3050.00,3460.00,599.75,589.30,22.65,0000 0000 0000 0000 000000
2016-07-21 09:52:36,0.00,0.12,0.00,25.99,29.45,32.12,14.32,47.53,1015.64,2030.00,3399.99,3050.00,3460.00,600.05,589.65,22.70,0000 0000 0000 0000 000000
2016-07-21 09:57:37,0.00,0.12,0.00,25.98,29.45,32.17,14.26,47.42,1015.64,2030.00,3399.99,3049.99,3459.99,600.15,589.74,22.75,0000 0000 0000 0000 000000
2016-07-21 10:02:39,0.00,0.12,0.00,25.99,29.45,32.11,14.35,47.37,1015.64,2030.00,3399.98,3049.99,3459.98,600.15,589.66,22.80,0000 0000 0000 0000 000000
2016-07-21 10:07:40,0.01,0.12,0.00,26.00,29.45,32.11,14.23,47.44,1015.64,2030.00,3399.85,3049.86,3459.84,599.78,589.26,22.85,0000 0000 0000 0000 000000
2016-07-21 10:12:41,0.05,0.12,0.00,25.99,29.45,32.17,14.26,47.34,1015.65,2030.00,3399.03,3049.02,3458.73,600.05,589.43,22.90,0000 0000 0000 0000 000000
2016-07-21 10:17:43,-0.00,0.12,0.00,25.99,29.45,32.15,14.38,47.33,1015.66,2029.99,3398.99,3048.97,3458.70,600.21,589.73,22.95,0000 0000 0000 0000 000000
2016-07-21 10:22:44,-0.00,0.12,0.00,25.99,29.45,32.14,14.27,47.31,1015.66,2029.99,3398.98,3048.98,3458.78,600.05,589.61,23.00,0000 0000 0000 0000 000000
2016-07-21 10:27:45,0.01,0.12,0.00,25.99,29.45,32.12,14.32,47.27,1015.66,2029.97,3398.95,3048.94,3458.23,600.14,589.52,23.05,0000 0000 0000 0000 000000
2016-07-21 10:32:46,0.00,0.12,0.00,25.99,29.45,32.13,14.25,47.57,1015.65,2029.99,3398.93,3048.96,3458.26,599.96,589.39,23.10,0000 0000 0000 0000 000000
2016-07-21 10:37:47,0.00,0.12,0.00,25.97,29.45,32.11,14.31,47.39,1015.65,2029.99,3398.85,3048.93,3458.17,599.99,589.54,23.15,0000 0000 0000 0000 000000
2016-07-21 10:42:49,0.00,0.12,0.00,25.97,29.45,32.12,14.28,47.37,1015.66,2029.98,3398.76,3048.89,3458.12,599.56,589.15,23.20,0000 0000 0000 0000 000000
2016-07-21 10:47:50,0.00,0.12,0.00,25.95,29.45,32.14,14.34,47.20,1015.66,2029.99,3398.80,3048.88,3458.11,600.34,589.93,23.25,0000 0000 0000 0000 000000
2016-07-21 10:52:51,-0.00,0.12,0.00,25.95,29.45,32.12,14.34,47.19,1015.70,2029.98,3398.83,3048.90,3458.14,600.04,589.62,23.30,0000 0000 0000 0000 000000
2016-07-21 10:57:53,0.01,0.12,0.00,25.95,29.45,32.12,14.26,47.17,1015.88,2029.98,3398.65,3048.87,3458.12,599.69,589.43,23.35,0000 0000 0000 0000 000000
2016-07-21 11:02:54,0.01,0.12,0.00,25.95,29.45,32.13,14.42,47.40,1015.82,2029.99,3398.31,3048.66,3458.03,600.32,590.12,23.40,0000 0000 0000 0000 000000
2016-07-21 11:07:55,-0.00,0.12,0.00,25.95,29.45,32.12,14.32,47.22,1015.74,2029.98,3398.40,3048.82,3458.06,600.30,589.89,23.45,0000 0000 0000 0000 000000
2016-07-21 11:12:56,-0.00,0.12,0.00,25.94,29.45,32.13,14.35,47.26,1015.67,2029.99,3398.54,3048.89,3458.15,600.20,589.84,23.50,0000 0000 0000 0000 000000
2016-07-21 11:17:58,0.00,0.12,0.00,25.94,29.45,32.15,14.28,47.42,1015.65,2029.98,3398.29,3048.77,3458.03,599.87,589.48,23.55,0000 0000 0000 0000 000000
2016-07-21 11:22:59,0.00,0.12,0.00,25.94,29.45,32.13,14.26,47.23,1015.64,2029.98,3398.18,3048.73,3458.02,599.91,589.65,23.60,0000 0000 0000 0000 000000
2016-07-21 11:28:01,0.00,0.12,0.00,25.92,29.45,32.18,14.33,47.18,1015.64,2029.99,3398.16,3048.74,3458.01,600.25,589.90,23.65,0000 0000 0000 0000 000000
2016-07-21 11:33:02,-0.01,0.12,0.00,25.92,29.45,32.13,14.35,47.38,1015.64,2029.99,3398.41,3048.87,3458.10,599.76,589.42,23.70,0000 0000 0000 0000 000000
2016-07-21 11:38:03,0.01,0.12,0.00,25.90,29.45,32.16,14.26,47.23,1015.63,2029.98,3398.20,3048.78,3458.06,599.88,589.57,23.75,0000 0000 0000 0000 000000
2016-07-21 11:43:04,0.00,0.12,0.00,25.89,29.45,32.15,14.35,47.23,1015.64,2029.98,3398.06,3048.64,3458.03,599.96,589.72,23.80,0000 0000 0000 0000 000000
2016-07-21 11:48:05,-0.00,0.12,0.00,25.90,29.45,32.17,14.30,47.31,1015.64,2029.97,3398.11,3048.72,3458.03,599.60,589.40,23.85,0000 0000 0000 0000 000000
2016-07-21 11:53:07,-0.00,0.12,0.00,25.90,29.45,32.18,14.30,47.32,1015.64,2029.99,3398.14,3048.70,3458.01,599.86,589.57,23.90,0000 0000 0000 0000 000000
2016-07-21 11:58:08,0.00,0.12,0.00,25.90,29.45,32.13,14.28,47.28,1015.64,2029.99,3398.12,3048.74,3458.04,599.82,589.52,23.95,0000 0000 0000 0000 000000
2016-07-21 12:03:09,0.00,0.12,0.00,25.90,29.44,32.10,14.27,47.13,1015.64,2029.98,3398.13,3048.71,3458.04,599.71,589.41,24.00,0000 0000 0000 0000 000000
2016-07-21 12:08:10,0.00,0.12,0.00,25.90,29.44,32.12,14.29,47.26,1015.64,2029.98,3398.02,3048.52,3458.00,600.08,589.74,24.05,0000 0000 0000 0000 000000
2016-07-21 12:13:11,0.00,0.13,0.00,25.87,29.43,32.14,14.31,47.27,1015.64,2029.98,3398.01,3048.32,3458.00,600.04,589.89,24.10,0000 0000 0000 0000 000000
2016-07-21 12:18:12,0.00,0.13,0.00,25.87,29.42,32.13,14.34,47.31,1015.64,2029.99,3398.00,3048.23,3458.00,600.13,589.72,24.15,0000 0000 0000 0000 000000
2016-07-21 12:23:14,-0.00,0.13,0.00,25.87,29.42,32.14,14.31,47.27,1015.64,2029.99,3398.00,3048.26,3458.00,600.21,590.01,24.20,0000 0000 0000 0000 000000
2016-07-21 12:28:15,0.00,0.13,0.00,25.87,29.42,32.11,14.34,47.23,1015.62,2029.99,3398.00,3048.26,3458.00,600.04,589.73,24.25,0000 0000 0000 0000 000000
2016-07-21 12:33:16,-0.01,0.13,0.00,25.86,29.42,32.06,14.33,47.13,1015.61,2029.99,3398.00,3048.39,3458.00,599.91,589.68,24.30,0000 0000 0000 0000 000000
2016-07-21 12:38:18,-0.00,0.12,0.00,25.86,29.42,32.09,14.29,47.27,1015.64,2029.99,3398.01,3048.61,3458.00,599.97,589.74,24.35,0000 0000 0000 0000 000000
2016-07-21 12:43:19,0.00,0.12,0.00,25.85,29.42,32.12,14.37,47.34,1015.64,2029.99,3398.00,3048.45,3458.00,600.21,590.06,24.40,0000 0000 0000 0000 000000
2016-07-21 12:48:20,-0.00,0.12,0.00,25.85,29.41,32.14,14.34,47.25,1015.64,2029.98,3398.00,3048.58,3458.01,599.83,589.71,24.45,0000 0000 0000 0000 000000
2016-07-21 12:53:22,0.00,0.12,0.00,25.83,29.40,32.13,14.29,47.23,1015.62,2029.99,3398.00,3048.66,3458.02,599.90,589.72,24.50,0000 0000 0000 0000 000000